NOAA 1 1 04793U 70106A 25187.62997105 -.00000039 00000-0 23672-4 0 9996 2 04793 101.3879 231.6554 0031026 304.8039 173.5095 12.54043695497378 NOAA 2 (ITOS-D) 1 06235U 72082A 25187.63418936 -.00000016 00000-0 18970-3 0 9994 2 06235 102.0205 197.1875 0004530 107.2898 1.8851 12.53201928411667 NOAA 3 1 06920U 73086A 25187.60952726 -.00000023 00000-0 17411-3 0 9994 2 06920 102.2884 193.1897 0006798 43.2224 65.6962 12.40383576339052 NOAA 4 1 07529U 74089A 25187.61300424 -.00000028 00000-0 11664-3 0 9996 2 07529 102.0029 191.7255 0009341 133.6690 339.7213 12.53195261316232 NOAA 5 1 09057U 76077A 25187.59363442 -.00000017 00000-0 22601-3 0 9990 2 09057 102.2585 167.1773 0009233 252.1779 223.4001 12.37819345211715 TIROS N 1 11060U 78096A 25187.62969250 .00000136 00000-0 84497-4 0 9996 2 11060 98.4859 218.7797 0010888 157.6916 202.4736 14.19203176629739 NOAA 6 1 11416U 79057A 25187.61018210 .00000238 00000-0 98739-4 0 9996 2 11416 98.5979 213.9514 0009548 196.0218 164.0666 14.35196801401383 NOAA 7 1 12553U 81059A 25187.21577524 .00000037 00000-0 40153-4 0 9992 2 12553 98.8425 251.8284 0011600 172.4975 187.6376 14.17711114275726 NOAA 8 1 13923U 83022A 25187.62911270 .00000099 00000-0 56204-4 0 9993 2 13923 98.7365 194.6267 0014636 184.8549 175.2493 14.29641344201699 NOAA 9 1 15427U 84123A 25187.64465684 .00000083 00000-0 64639-4 0 9996 2 15427 99.1210 200.8027 0013669 246.9314 223.2063 14.16933021 94489 NOAA 10 1 16969U 86073A 25187.59052497 .00000097 00000-0 56072-4 0 9999 2 16969 98.6751 176.8424 0010938 289.3451 181.6784 14.29015556 20054 NOAA 11 1 19531U 88089A 25187.49454053 .00000027 00000-0 35350-4 0 9998 2 19531 98.5720 140.3576 0010475 205.2172 154.8493 14.15751292898561 NOAA 12 1 21263U 91032A 25187.58507311 .00000066 00000-0 45214-4 0 9994 2 21263 98.5882 176.8182 0012905 322.4262 37.6015 14.26616517775681 NOAA 13 1 22739U 93050A 25187.47027890 .00000058 00000-0 53246-4 0 9997 2 22739 98.6574 137.5930 0010260 41.2100 318.9845 14.13534518644534 NOAA 14 1 23455U 94089A 25187.54081406 .00000041 00000-0 42658-4 0 9994 2 23455 98.4650 168.9700 0009517 4.5671 355.5588 14.14589730574332 NOAA 15 1 25338U 98030A 25187.59641637 .00000183 00000-0 93039-4 0 9995 2 25338 98.5339 212.0759 0008999 281.6007 78.4164 14.26992754412001 NOAA 16 1 26536U 00055A 25187.60649786 .00000057 00000-0 51994-4 0 9995 2 26536 98.4870 214.7328 0009833 207.7265 152.3386 14.13813892574890 NOAA 17 1 27453U 02032A 25187.62168169 .00000102 00000-0 61829-4 0 9993 2 27453 98.8137 145.2581 0010478 274.2809 85.7173 14.26024662197738 NOAA 18 1 28654U 05018A 25187.58933605 .00000051 00000-0 50257-4 0 9990 2 28654 98.8422 266.7618 0015091 55.9918 304.2685 14.13617058 37485 NOAA 19 1 33591U 09005A 25187.60015457 .00000144 00000-0 10080-3 0 9997 2 33591 98.9962 252.4551 0012676 288.7148 71.2648 14.13385741845664 NPP 1 37849U 11061A 25187.53741272 .00000037 00000-0 38233-4 0 9997 2 37849 98.7580 126.5086 0000686 182.3487 177.7686 14.19544121709393